Saint Cloud, MN

9:35 PM CST on December 07, 2016 (GMT -0600)
Saint Cloud Regional

Weather History for KSTC - August, 2013

Change the Weather History Date:

Thursday, August 22, 2013

  Actual Average Record
Temperature  
Mean Temperature 71 °F 67 °F  
Max Temperature 85 °F 79 °F 97 °F (1971)
Min Temperature 56 °F 55 °F 42 °F (1950)
Degree Days  
Heating Degree Days 0 1  
Month to date heating degree days 23 22  
Since 1 June heating degree days 136 117  
Since 1 July heating degree days 49 39  
Cooling Degree Days 6 3  
Month to date cooling degree days 61 100  
Year to date cooling degree days 388 402  
Since 1 June cooling degree days 377 377  
Growing Degree Days 22 (Base 50)    
Moisture  
Dew Point 49 °F    
Average Humidity 57    
Maximum Humidity 87    
Minimum Humidity 26    
Precipitation  
Precipitation 0.00 in 0.12 in 2.15 in (1900)
Month to date precipitation 0.58 2.59  
Year to date precipitation 20.06 18.38  
Snow  
Snow 0.00 in 0.00 in 0.00 in ()
Month to date snowfall 0.0 0.0  
Since 1 June snowfall 0.0 0.0  
Since 1 July snowfall 0.0 0.0  
Snow Depth 0.00 in    
Sea Level Pressure  
Sea Level Pressure 30.13 in    
Wind  
Wind Speed 4 mph (NE)    
Max Wind Speed 12 mph    
Max Gust Speed 15 mph    
Visibility 10 miles    
Events      
T = Trace of Precipitation, MM = Missing Value Source: NWS Daily Summary

Daily Weather History Graph

Daily Weather History Graph

Search for Another Location

Airport or City:

Trip Planner

Search our weather history database for the weather conditions in past years. The results will help you decide how hot, cold, wet, or windy it might be!

Date:

Astronomy

Aug. 22, 2013 Rise Set
Actual Time 6:25 AM CDT 8:11 PM CDT
Civil Twilight 5:54 AM CDT 8:42 PM CDT
Nautical Twilight 5:15 AM CDT 9:21 PM CDT
Astronomical Twilight 4:33 AM CDT 10:02 PM CDT
Moon 8:45 PM CDT (8/22) 8:23 AM CDT (8/22)
Length of Visible Light 14h 48m
Length of Day
13h 45m
Waning Gibbous, 96% of the Moon is Illuminated
Aug 22
Waning Gibbous
Aug 28
Last Quarter
Sep 5
New
Sep 12
First Quarter
Sep 19
Full

Hourly Weather History & Observations

Time (CDT) Temp. Dew Point Humidity Pressure Visibility Wind Dir Wind Speed Gust Speed Precip Events Conditions
12:53 AM 66.9 °F 55.0 °F 66% 30.06 in 10.0 mi NNE 3.5 mph - N/A   Clear
1:53 AM 66.0 °F 55.9 °F 70% 30.07 in 10.0 mi NNE 4.6 mph - N/A   Clear
2:53 AM 63.0 °F 55.9 °F 78% 30.09 in 10.0 mi North 3.5 mph - N/A   Clear
3:53 AM 62.1 °F 55.9 °F 80% 30.10 in 10.0 mi North 4.6 mph - N/A   Clear
4:53 AM 59.0 °F 55.0 °F 87% 30.13 in 10.0 mi Calm Calm - N/A   Clear
5:53 AM 60.1 °F 53.1 °F 78% 30.14 in 10.0 mi NNE 3.5 mph - N/A   Clear
6:53 AM 62.1 °F 48.0 °F 60% 30.13 in 10.0 mi NNE 8.1 mph - N/A   Clear
7:53 AM 63.0 °F 46.9 °F 56% 30.14 in 10.0 mi NE 6.9 mph - N/A   Clear
8:53 AM 68.0 °F 48.0 °F 49% 30.17 in 10.0 mi East 5.8 mph - N/A   Clear
9:53 AM 73.0 °F 46.0 °F 38% 30.17 in 10.0 mi ENE 9.2 mph - N/A   Clear
10:53 AM 75.0 °F 45.0 °F 34% 30.17 in 10.0 mi East 8.1 mph - N/A   Clear
11:53 AM 77.0 °F 45.0 °F 32% 30.17 in 10.0 mi NE 6.9 mph - N/A   Clear
12:53 PM 79.0 °F 46.0 °F 31% 30.15 in 10.0 mi ENE 6.9 mph - N/A   Clear
1:53 PM 82.0 °F 44.1 °F 26% 30.15 in 10.0 mi Variable 3.5 mph - N/A   Clear
2:53 PM 82.9 °F 45.0 °F 26% 30.14 in 10.0 mi Variable 6.9 mph - N/A   Clear
3:53 PM 84.0 °F 46.0 °F 26% 30.13 in 10.0 mi NE 5.8 mph - N/A   Clear
4:53 PM 82.9 °F 45.0 °F 26% 30.13 in 10.0 mi North 6.9 mph - N/A   Clear
5:53 PM 82.0 °F 44.1 °F 26% 30.12 in 10.0 mi NW 4.6 mph - N/A   Clear
6:53 PM 80.1 °F 46.0 °F 30% 30.12 in 10.0 mi NE 3.5 mph - N/A   Clear
7:53 PM 73.9 °F 50.0 °F 43% 30.12 in 10.0 mi NE 3.5 mph - N/A   Clear
8:53 PM 66.9 °F 48.9 °F 52% 30.14 in 10.0 mi NE 3.5 mph - N/A   Clear
9:53 PM 64.9 °F 48.0 °F 54% 30.14 in 10.0 mi Calm Calm - N/A   Clear
10:53 PM 59.0 °F 48.0 °F 67% 30.15 in 10.0 mi Calm Calm - N/A   Clear
11:53 PM 57.0 °F 48.0 °F 72% 30.16 in 10.0 mi Calm Calm - N/A   Clear